Content
SEND FEEDBACK

Daily
Averages
Monthly
Summary
Turkmenistan

KURTILE, TURKMENISTAN


Home > Asia > Turkmenistan
Elevation: 748 feet     Latitude: 37 58N     Longitude: 058 19E

WEATHER
 
SELECT A DAY
Number of Records: 177,354;   Date Range: 3/15/97 - 8/12/14
 
SHARE

PRINT THIS DATA

[ ← Previous Day ]
WEATHER ALMANAC - MARCH 24, 2014
[ Next Day → ]
[ °C ]   °F
Weather ElementAverageHighLow
Temperature45.7 °F55.4 °F (4:30 pm)35 °F (5:00 am)
Dewpoint27.9 °F37.4 °F (9:00 pm)24.8 °F (12:00 pm)
Humidity49.7 %75 % (4:00 am)20 % (5:00 pm)
Barometer30.33 in30.39 in (2:00 am)30.27 in (5:00 pm)
Wind Speed6.6 mph13.4 mph (4:30 pm)
Wind Gust20.1 mph (3:00 pm)
Weather ElementAverage
Visibility6.2 mi
Wind DirectionSSW (199.1 °)

Weather ElementTotal
Precipitation---
Heating Degree Days19.8 (Base 65)
Averaged from 33 records on March 24, 2014
WEATHER CONDITIONS BREAKOUT
WIND DIRECTION BREAKOUT
WEATHER BY HOUR - MARCH 24, 2014
[ °C ]   °F
Local TimeTemperatureDewpointHumidityBarometerVisibilityWind DirectionWind SpeedGust SpeedPrecipitationEventsConditions
1:00 AM37.4 °F26.6 °F65 %30.33 in6.2 miCalmPartly Cloudy
2:00 AM37.0 °F27.0 °F57 %30.39 in6.0 miESE (120°)4.5 mphScattered Clouds
2:00 AM37.4 °F28.4 °F70 %30.30 in6.2 miESE (120°)4.5 mphPartly Cloudy
3:00 AM37.4 °F26.6 °F65 %30.30 in6.2 miSouth (170°)4.5 mphClear
4:00 AM35.6 °F28.4 °F75 %30.30 in6.2 miSSW (210°)4.5 mphClear
5:00 AM35.0 °F26.0 °F61 %30.37 in6.0 miSSW (200°)6.7 mph
5:00 AM35.6 °F28.4 °F75 %30.33 in6.2 miSSW (200°)6.7 mphClear
6:00 AM35.6 °F28.4 °F75 %30.33 in6.2 miSSW (200°)4.5 mphClear
7:00 AM35.6 °F26.6 °F70 %30.33 in6.2 miSSW (210°)6.7 mphScattered Clouds
8:00 AM37.0 °F26.0 °F54 %30.38 in6.0 miCalmClear
8:00 AM39.2 °F28.4 °F65 %30.33 in6.2 miCalmScattered Clouds
9:00 AM44.6 °F28.4 °F53 %30.33 in6.2 miSSE (160°)4.5 mphScattered Clouds
10:00 AM46.4 °F26.6 °F46 %30.36 in6.2 miEast (90°)6.7 mphScattered Clouds
11:00 AM46.0 °F26.0 °F32 %30.39 in6.0 miEast (80°)6.7 mphScattered Clouds
11:00 AM46.4 °F26.6 °F46 %30.36 in6.2 miEast (80°)6.7 mphMostly Cloudy
12:00 PM48.2 °F24.8 °F40 %30.36 in6.2 miENE (60°)4.5 mphMostly Cloudy
1:00 PM50.0 °F24.8 °F37 %30.33 in6.2 miNE (50°)4.5 mphMostly Cloudy
2:00 PM51.0 °F26.0 °F25 %30.36 in6.0 miNorth (10°)4.5 mphScattered Clouds
2:00 PM51.8 °F24.8 °F35 %30.33 in6.2 miNNE (20°)4.5 mphMostly Cloudy
3:00 PM53.6 °F24.8 °F33 %30.30 in6.2 miWest (280°)8.9 mph20.1 mphMostly Cloudy
3:30 PM53.6 °F24.8 °F33 %30.30 in6.2 miNorth (350°)6.7 mphMostly Cloudy
4:00 PM53.6 °F26.6 °F35 %30.30 in6.2 miNNW (330°)6.7 mphMostly Cloudy
4:30 PM55.4 °F26.6 °F33 %30.30 in6.2 miWNW (290°)13.4 mphMostly Cloudy
5:00 PM55.0 °F25.0 °F20 %30.32 in6.0 miWNW (290°)11.2 mphScattered Clouds
5:00 PM53.6 °F24.8 °F33 %30.27 in6.2 miWNW (290°)8.9 mphMostly Cloudy
6:00 PM53.6 °F24.8 °F33 %30.30 in6.2 miWNW (290°)11.2 mphMostly Cloudy
7:00 PM53.6 °F24.8 °F33 %30.30 in6.2 miWNW (300°)8.9 mphMostly Cloudy
8:00 PM52.0 °F30.0 °F30 %30.32 in6.0 miNorth (350°)13.4 mphOvercast
8:00 PM50.0 °F35.6 °F58 %30.30 in6.2 miNorth (350°)13.4 mphOvercast
9:00 PM48.2 °F37.4 °F66 %30.33 in6.2 miNNW (340°)8.9 mphOvercast
10:00 PM46.4 °F37.4 °F71 %30.33 in6.2 miNW (310°)6.7 mphOvercast
11:00 PM47.0 °F32.0 °F45 %30.36 in6.0 miNW (310°)6.7 mphSnowRain
11:00 PM46.4 °F37.4 °F71 %30.30 in6.2 miNW (310°)6.7 mphRainLight Rain Showers
Hourly data recorded from UTAA, located miles away from Kurtile, Turkmenistan







STORIES FROM OUR PARTNERS